Location: Berville
(49.1893°N, 2.0748°E)
Time: 17:31:24
(UTC+00:00)

USA 81 - Pass Details

Date: 08 February 2023
Orbit: 784 x 788 km, 85.0° (Epoch: 26 March)

Event Time Altitude Azimuth Distance (km) Brightness Sun altitude
Rises 19:10:28 0° 193° (SSW) 3,270 7.4 -21.7°
Reaches altitude 10° 19:12:50 10° 196° (SSW) 2,345 6.7 -22.1°
Maximum altitude 19:18:04 66° 278° (W) 862 4.4 -23.0°
Drops below altitude 10° 19:23:21 10° 1° (N) 2,361 6.6 -23.8°
Sets 19:25:44 0° 5° (N) 3,293 7.3 -24.2°
